Location: Berg
(47.2344°N, 9.5296°E)
Time: 18:30:47
(UTC+00:00)

N. Korean satellite - Pass Details

Date: 25 September 2021
Orbit: 450 x 495 km, 97.3° (Epoch: 15 October)

Event Time Altitude Azimuth Distance (km) Brightness Sun altitude
Rises 03:31:06 0° 34° (NNE) 2,527 11.1 -17.8°
Reaches altitude 10° 03:34:23 10° 68° (ENE) 1,654 10.6 -17.3°
Maximum altitude 03:35:43 12° 90° (E) 1,553 10.2 -17.0°
Drops below altitude 10° 03:37:03 10° 112° (ESE) 1,659 10.0 -16.8°
Sets 03:40:21 0° 146° (SE) 2,543 10.5 -16.3°
